Regional Weather Roundup
Issued by NWS Sioux Falls, SD

Home | Current Version | Previous Version | Graphics & Text | Print | Product List | Glossary Off
Versions: 1 2 3 4 5 6 7 8 9 10 11 12 13 14 15 16 17 18 19 20 21 22 23 24 25 26 27 28 29 30 31 32 33 34 35 36 37 38 39 40 41 42 43 44 45 46 47 48 49 50

000
ASUS43 KFSD 260902
RWRFSD

WEATHER ROUNDUP FOR SE SOUTH DAKOTA/SW MINNESOTA/NW IOWA
NATIONAL WEATHER SERVICE SIOUX FALLS SD
400 AM CDT WED APR 26 2017

NOTE: "FAIR" INDICATES FEW OR NO CLOUDS BELOW 12,000 FEET WITH NO
SIGNIFICANT WEATHER AND OR OBSTRUCTIONS TO VISIBILITY.


SDZ038>040-050-052>070-261000-
SOUTHEAST SOUTH DAKOTA

CITY           SKY/WX    TMP DP  RH WIND       PRES   REMARKS
BROOKINGS      MIX PCPN  32  31  96 N18G24    29.61F WCI  20
CHAMBERLAIN    CLOUDY    34  32  92 W18       29.76F WCI  23
HURON          CLOUDY    32  31  96 N16       29.72F WCI  21
MADISON        LGT RAIN  32  32 100 N16G26    29.62F WCI  21
MITCHELL       FRZ RAIN  33  32  96 NW21G29   29.71F FOG     WCI  21
SIOUX FALLS    CLOUDY    36  34  92 NW16G26   29.62S
WINNER         CLOUDY    32  29  88 NW20      29.77F WCI  20
YANKTON        CLOUDY   N/A N/A N/A NW23G33   29.66R
$$

MNZ071-072-080-081-089-090-097-098-261000-
SOUTHWEST MINNESOTA

CITY           SKY/WX    TMP DP  RH WIND       PRES   REMARKS
FAIRMONT       LGT RAIN  43  42  97 NW18      29.46F
JACKSON        LGT RAIN  37  37 100 NW18G30   29.50R
MARSHALL       LGT RAIN  36  34  92 N22G29    29.58F FOG
MONTEVIDEO     CLOUDY    36  36 100 N18       29.60S
PIPESTONE      CLOUDY    36  30  80 N18G26    29.57F
REDWOOD FALLS  LGT RAIN  39  36  89 N12       29.54S
TRACY          CLOUDY    37  37  97 N18G28    29.57S
WINDOM         DRIZZLE   39  37  93 NW24G31   29.51S
WORTHINGTON    CLOUDY    36  36 100 NW20G30   29.54F FOG
$$

IAZ001>003-012>014-020>022-031-032-NEZ013-014-SDZ071-261000-
NORTHWEST IOWA

CITY           SKY/WX    TMP DP  RH WIND       PRES   REMARKS
CHEROKEE       LGT RAIN  37  37 100 NW15G25   29.55F
DENISON        MIX PCPN  37  37 100 NW14G21   29.57S
ESTHERVILLE    CLOUDY    40  40 100 NW21      29.48F FOG
LE MARS        CLOUDY    37  36  93 NW20G28   29.61R
ORANGE CITY    CLOUDY    36  36 100 NW16G22   29.58R
SHELDON        CLOUDY    37  36  93 NW16G26   29.55R FOG
SIOUX CITY     CLOUDY    36  35  96 NW21G31   29.59F
SPENCER        CLOUDY    39  38  96 NW23G29   29.52R
STORM LAKE     CLOUDY    37  37 100 NW18G25   29.52F
$$

ABBREVIATIONS USED IN REMARKS
   TC - TEMPERATURE IN CELSIUS
  WCI - WIND CHILL INDEX
   HX - HEAT INDEX
  VSB - VISIBILITY




USA.gov is the U.S. government's official web portal to all federal, state and local government web resources and services.